User: anonymous   Login
Location: Caltech
(34.1382°N, 118.1253°W)
Time: 04:43:23
(UTC-07:00)
Language:

SO-67 - Orbit

View from above orbital plane
View from above orbital plane
View from above satellite
View from above satellite

Ground track
Ground track

The orbit data is extracted from the following two-line orbital elements,

1 35870U 09049F   15146.15692941  .00008363  00000-0  20109-3 0  9994
2 35870 097.1356 162.9623 0001274 070.1282 355.9232 15.41552933316725
Epoch (UTC): 26 May 2015 03:45:58
Eccentricity: 0.0001274
inclination: 97.1356°
perigee height: 440 km
apogee height: 442 km
right ascension of ascending node: 162.9623°
argument of perigee: 70.1282°
revolutions per day: 15.41552933
mean anomaly at epoch: 355.9232°
orbit number at epoch: 31672

The dashed part of the orbit path shows where the satellite is in the earth's shadow,  

DLR